[[{"header":{"parameterUnit":"m.s-1","parameterCategory":1,"la1":30.2991,"la2":30.254,"lo1":-89.0895,"lo2":-89.0444,"dy":0.0017,"dx":0.0017,"nx":28,"ny":28,"refTime":"2025-08-27T21:00:00:Z","depth":0,"parameterNumber":2,"parameterNumberName":"U-component_of_WINDS"},"data":[0,0,0,0,0,0,0,0,0,0,0,0,0,0,0,0,0,0,0,0,0,0,0,0,0,0,0,0,0,0,0,0,0,0,0,0,0,0,0,0,0,0,0,0,0,0,0,0,0,0,0,0,0,0,0,0,0,0,-0.3592,-0.3591,0,-0.3558,-0.3558,-0.3557,-0.3503,-0.3502,-0.3501,-0.35,-0.3467,-0.3467,-0.3467,0,0,0,0,0,0,0,0,0,0,0,0,0,-0.3611,-0.3611,-0.3592,-0.3591,-0.3591,-0.3558,-0.3558,-0.3557,-0.3503,-0.3502,-0.35,-0.3499,-0.3467,-0.3467,-0.3467,0,0,0,0,0,0,0,0,0,0,0,0,0,-0.3593,-0.3611,-0.3592,-0.356,-0.3556,-0.3558,-0.3558,-0.3557,-0.3503,-0.3502,-0.35,-0.3499,-0.3467,-0.3467,-0.3467,-0.3498,0,0,-0.3467,-0.3467,0,0,0,0,0,0,0,0,-0.3594,-0.3592,-0.3565,-0.3562,-0.3558,-0.3533,-0.3552,-0.3537,-0.3503,-0.3523,-0.35,-0.3498,-0.349,-0.3488,-0.3485,-0.3496,-0.3495,-0.3467,-0.3467,-0.3467,-0.3467,0,0,0,0,0,0,0,-0.3595,-0.3593,-0.3578,-0.3565,-0.3561,-0.3548,-0.3544,-0.3549,-0.3516,-0.3522,-0.3517,-0.3514,-0.3488,-0.3485,-0.3484,-0.3494,-0.3467,-0.3467,-0.3467,-0.3467,-0.353,-0.3532,0,0,0,0,0,0,-0.3601,-0.3595,-0.3579,-0.3577,-0.3573,-0.3549,-0.3544,-0.3543,-0.3515,-0.351,-0.3516,-0.3512,-0.3486,-0.3484,-0.3483,-0.3518,-0.3467,-0.3467,-0.3468,-0.3529,-0.3531,-0.3532,0,0,0,0,0,0,-0.3602,-0.36,-0.3581,-0.3585,-0.3581,-0.355,-0.3549,-0.3543,-0.354,-0.3511,-0.3505,-0.3519,-0.3485,-0.3483,-0.3495,-0.3516,-0.3468,-0.3468,-0.3527,-0.3529,-0.3531,-0.3588,0,0,0,0,0,0,-0.3602,-0.3601,-0.3611,-0.3586,-0.3581,-0.3593,-0.355,-0.3543,-0.354,-0.3535,-0.3512,-0.3507,-0.3483,-0.3495,-0.3495,-0.3515,-0.3468,-0.3525,-0.3528,-0.3531,-0.3584,-0.3592,-0.3599,0,0,0,0,0,-0.3603,-0.3629,-0.3612,-0.3611,-0.3594,-0.3594,-0.3592,-0.3563,-0.3542,-0.3553,-0.3535,-0.3508,-0.3514,-0.3496,-0.3496,-0.3517,-0.3523,-0.3527,-0.3531,-0.3581,-0.3591,-0.3599,0,0,0,0,0,0,-0.3658,-0.3625,-0.3606,-0.3624,-0.3612,-0.3585,-0.3598,-0.3574,-0.3569,-0.3564,-0.353,-0.3525,-0.3542,-0.353,-0.3512,-0.3546,-0.3514,-0.3518,-0.3553,-0.3562,-0.3569,-0.3572,-0.3468,0,0,0,0,0,-0.3672,-0.3675,-0.3645,-0.3664,-0.3659,-0.363,-0.3628,-0.3608,-0.3594,-0.3589,-0.3572,-0.3561,-0.356,-0.356,-0.3558,-0.3582,-0.3577,-0.3596,-0.3604,-0.361,-0.3614,-0.3627,-0.3636,-0.3544,-0.3544,-0.3544,0,0,-0.3702,-0.3684,-0.3687,-0.3675,-0.3663,-0.3667,-0.3626,-0.3631,-0.3634,-0.359,-0.3601,-0.3588,-0.3573,-0.3592,-0.3599,-0.3582,-0.3638,-0.3615,-0.362,-0.362,-0.3632,-0.3641,-0.3648,-0.3547,-0.3546,-0.3546,0,0,-0.3758,-0.3744,-0.3758,-0.3748,-0.3731,-0.3711,-0.3715,-0.3691,-0.3681,-0.369,-0.3658,-0.3661,-0.366,-0.3651,-0.3647,-0.3701,-0.3676,-0.3701,-0.374,-0.3753,-0.376,-0.3767,-0.3787,-0.3795,-0.3705,-0.3705,-0.3705,0,-0.3797,-0.38,-0.3769,-0.3776,-0.3772,-0.3733,-0.3748,-0.3739,-0.3723,-0.3721,-0.3703,-0.3702,-0.3689,-0.3706,-0.3719,-0.3716,-0.372,-0.3703,-0.3762,-0.3768,-0.3773,-0.3792,-0.38,-0.3708,-0.3707,-0.3707,-0.3707,0,-0.385,-0.3853,-0.3867,-0.3852,-0.3849,-0.3861,-0.3832,-0.3833,-0.3813,-0.3795,-0.3807,-0.379,-0.3784,-0.3786,-0.3767,-0.3801,-0.3791,-0.3768,-0.3736,-0.3786,-0.3803,-0.381,-0.3712,-0.3711,-0.371,-0.371,0,0,-0.3939,-0.3907,-0.3913,-0.3906,-0.3884,-0.3887,-0.3897,-0.3891,-0.3893,-0.3884,-0.3892,-0.3893,-0.3871,-0.3866,-0.3845,-0.3857,-0.3902,-0.3832,-0.3831,-0.3847,-0.394,-0.3959,-0.3968,-0.3886,-0.3887,-0.3888,-0.3942,0,-0.3991,-0.4006,-0.3979,-0.4001,-0.4004,-0.3967,-0.3976,-0.3964,-0.3949,-0.395,-0.3933,-0.3934,-0.3905,-0.3902,-0.3912,-0.3895,-0.3921,-0.389,-0.3894,-0.3895,-0.39,-0.3976,-0.3996,-0.4048,-0.3948,-0.3949,-0.395,0,-0.4054,-0.4047,-0.407,-0.4048,-0.4049,-0.4057,-0.405,-0.4051,-0.4038,-0.4026,-0.4021,-0.3996,-0.4006,-0.3974,-0.3987,-0.3967,-0.3967,-0.3959,-0.3961,-0.3961,-0.3926,-0.398,-0.4063,-0.4072,-0.396,-0.396,-0.3959,0,-0.4119,-0.4115,-0.4128,-0.4124,-0.4098,-0.4106,-0.4096,-0.4081,-0.4079,-0.4073,-0.4072,-0.4068,-0.4065,-0.4063,-0.4038,-0.4017,-0.4055,-0.4021,-0.4046,-0.4047,-0.4056,-0.4056,-0.4142,-0.4055,-0.4055,-0.4055,-0.4055,0,-0.4181,-0.4196,-0.4157,-0.4166,-0.4182,-0.4151,-0.4168,-0.4154,-0.4142,-0.4147,-0.4115,-0.4121,-0.4087,-0.409,-0.4071,-0.4086,-0.4084,-0.4076,-0.4071,-0.4079,-0.4081,-0.4079,-0.4076,-0.4057,-0.4056,-0.4056,-0.4055,0,-0.4256,-0.423,-0.4242,-0.4218,-0.4212,-0.4225,-0.4205,-0.4212,-0.4194,-0.4202,-0.4202,-0.4175,-0.4176,-0.4151,-0.4148,-0.4135,-0.4159,-0.4147,-0.4163,-0.416,-0.4187,-0.4185,-0.4276,-0.4287,-0.4192,-0.4193,-0.4194,0,-0.4297,-0.4308,-0.4285,-0.4286,-0.4278,-0.428,-0.4278,-0.4248,-0.4248,-0.4234,-0.4244,-0.4242,-0.424,-0.4245,-0.4225,-0.4223,-0.4211,-0.4243,-0.4211,-0.422,-0.4213,-0.4213,-0.4215,-0.4251,-0.4252,-0.4253,-0.4254,0,-0.4374,-0.4361,-0.436,-0.4355,-0.4353,-0.4348,-0.434,-0.4343,-0.431,-0.4312,-0.4313,-0.4311,-0.4308,-0.4308,-0.4302,-0.4293,-0.4269,-0.4264,-0.427,-0.4279,-0.4289,-0.4285,-0.4183,-0.4262,-0.4261,-0.4261,-0.426,-0.426,-0.4435,-0.4443,-0.4428,-0.4428,-0.4419,-0.4413,-0.4419,-0.4402,-0.4402,-0.4397,-0.4379,-0.4384,-0.4372,-0.4361,-0.4354,-0.4358,-0.4342,-0.4351,-0.4353,-0.4356,-0.4361,-0.4288,-0.4356,-0.4356,-0.4356,-0.4356,-0.4355,0,-0.4511,-0.45,-0.45,-0.449,-0.449,-0.4466,-0.4457,-0.4459,-0.4463,-0.4453,-0.4452,-0.4454,-0.4454,-0.4435,-0.4433,-0.444,-0.4428,-0.444,-0.444,-0.4438,-0.4375,-0.437,-0.4449,-0.4449,-0.4449,-0.4449,-0.4449,-0.4449,-0.4551,-0.4565,-0.455,-0.4559,-0.4548,-0.4552,-0.4549,-0.4543,-0.4535,-0.4539,-0.4539,-0.4526,-0.4512,-0.4509,-0.4508,-0.4503,-0.4504,-0.452,-0.4511,-0.4452,-0.4443,-0.4434,-0.443,-0.452,-0.452,-0.4574,-0.4575,-0.4575]},{"header":{"parameterUnit":"m.s-1","parameterCategory":1,"la1":30.2991,"la2":30.254,"lo1":-89.0895,"lo2":-89.0444,"dy":0.0017,"dx":0.0017,"nx":28,"ny":28,"refTime":"2025-08-27T21:00:00:Z","depth":0,"parameterNumber":3,"parameterNumberName":"V-component_of_WINDS"},"data":[0,0,0,0,0,0,0,0,0,0,0,0,0,0,0,0,0,0,0,0,0,0,0,0,0,0,0,0,0,0,0,0,0,0,0,0,0,0,0,0,0,0,0,0,0,0,0,0,0,0,0,0,0,0,0,0,0,0,2.931,2.931,0,2.9311,2.9311,2.9311,2.9329,2.933,2.933,2.9331,2.9328,2.9328,2.9327,0,0,0,0,0,0,0,0,0,0,0,0,0,2.9322,2.9322,2.931,2.931,2.931,2.9311,2.9311,2.9311,2.9329,2.933,2.933,2.9331,2.9328,2.9328,2.9327,0,0,0,0,0,0,0,0,0,0,0,0,0,2.9319,2.9322,2.931,2.9319,2.932,2.9311,2.9311,2.9311,2.9329,2.933,2.933,2.9331,2.9328,2.9328,2.9327,2.9307,0,0,2.9325,2.9324,0,0,0,0,0,0,0,0,2.9319,2.9319,2.9318,2.9319,2.932,2.9321,2.9314,2.9309,2.9329,2.9325,2.9331,2.9331,2.9325,2.9324,2.9323,2.9307,2.9307,2.9324,2.9324,2.9324,2.9323,0,0,0,0,0,0,0,2.932,2.9319,2.931,2.9318,2.9319,2.9323,2.9323,2.9313,2.9321,2.9326,2.9327,2.9327,2.9325,2.9323,2.9323,2.9307,2.9325,2.9324,2.9323,2.9323,2.9275,2.9275,0,0,0,0,0,0,2.9319,2.9319,2.931,2.931,2.9321,2.9322,2.9322,2.9319,2.9321,2.9322,2.9327,2.9328,2.9324,2.9324,2.9323,2.93,2.9324,2.9323,2.9323,2.9276,2.9275,2.9274,0,0,0,0,0,0,2.9319,2.9318,2.931,2.9315,2.9314,2.9321,2.9318,2.9319,2.9317,2.9322,2.9323,2.9323,2.9325,2.9324,2.9311,2.93,2.9323,2.9322,2.9277,2.9276,2.9275,2.9254,0,0,0,0,0,0,2.9319,2.9318,2.9311,2.9315,2.9314,2.9299,2.9317,2.9319,2.9316,2.9318,2.9319,2.932,2.9325,2.9312,2.9311,2.9299,2.9321,2.9278,2.9277,2.9275,2.9255,2.9252,2.9249,0,0,0,0,0,2.932,2.9304,2.9311,2.9309,2.9306,2.9299,2.9298,2.9306,2.9315,2.9308,2.9311,2.932,2.9302,2.9311,2.9309,2.9297,2.9279,2.9277,2.9275,2.9257,2.9253,2.9249,0,0,0,0,0,0,2.9298,2.9305,2.9312,2.9298,2.9297,2.9302,2.9293,2.9301,2.9297,2.9299,2.9308,2.9308,2.9294,2.9294,2.9305,2.9278,2.9292,2.929,2.9278,2.9274,2.9271,2.9271,2.9321,0,0,0,0,0,2.9292,2.9287,2.9293,2.9279,2.9279,2.9286,2.9283,2.9289,2.9289,2.9289,2.9291,2.9289,2.9283,2.9279,2.9274,2.9256,2.9256,2.9247,2.9244,2.9241,2.9239,2.9229,2.9225,2.9269,2.9269,2.9269,0,0,2.9279,2.9282,2.9278,2.9275,2.9276,2.9269,2.9286,2.9278,2.9273,2.9287,2.9275,2.9277,2.9276,2.926,2.9254,2.926,2.9227,2.9239,2.9237,2.9236,2.9226,2.9222,2.9219,2.9267,2.9268,2.9268,0,0,2.9251,2.9253,2.9242,2.9243,2.9244,2.9249,2.9246,2.9249,2.9251,2.924,2.925,2.9244,2.9234,2.9233,2.9231,2.9203,2.9211,2.9201,2.9184,2.9174,2.917,2.9167,2.9157,2.9153,2.9199,2.9199,2.9199,0,2.9234,2.9225,2.9235,2.9227,2.9225,2.9239,2.9228,2.9227,2.9226,2.9224,2.9232,2.922,2.922,2.9204,2.9198,2.9196,2.9193,2.92,2.917,2.9167,2.9165,2.9155,2.9151,2.9198,2.9198,2.9198,2.9198,0,2.9204,2.9197,2.9188,2.9188,2.9185,2.9175,2.9183,2.9179,2.9186,2.9189,2.9177,2.9179,2.9174,2.9171,2.9177,2.9156,2.916,2.9169,2.9182,2.9159,2.915,2.9146,2.9196,2.9196,2.9197,2.9197,0,0,2.9161,2.9168,2.9164,2.9164,2.9166,2.9161,2.9152,2.9148,2.9144,2.9143,2.9135,2.9126,2.9135,2.9132,2.9138,2.913,2.9107,2.914,2.914,2.9133,2.9084,2.9076,2.9072,2.9113,2.9112,2.9112,2.9083,0,2.9134,2.9119,2.9128,2.9111,2.9105,2.9119,2.911,2.9111,2.9114,2.9109,2.9112,2.9106,2.9118,2.9117,2.9109,2.9112,2.9097,2.9114,2.9104,2.9104,2.9103,2.9067,2.9059,2.9032,2.908,2.9079,2.9079,0,2.91,2.9098,2.9081,2.9085,2.9083,2.9075,2.9073,2.9068,2.9068,2.9071,2.9069,2.9077,2.9067,2.9081,2.9067,2.9079,2.9075,2.9076,2.9075,2.9074,2.9089,2.9064,2.9024,2.9019,2.9073,2.9074,2.9074,0,2.907,2.9063,2.9052,2.9052,2.9056,2.9051,2.9052,2.9053,2.9051,2.9048,2.9046,2.9042,2.904,2.9036,2.9043,2.9052,2.9027,2.9042,2.9029,2.9028,2.9022,2.9022,2.898,2.9021,2.9021,2.9021,2.9021,0,2.9038,2.9027,2.9039,2.9032,2.902,2.903,2.9017,2.902,2.9021,2.9014,2.9026,2.9019,2.9028,2.9022,2.9027,2.9014,2.9013,2.9015,2.9016,2.9013,2.9013,2.901,2.9012,2.902,2.902,2.9021,2.9021,0,2.9002,2.901,2.8999,2.9004,2.9005,2.8996,2.9,2.8993,2.8998,2.8989,2.8988,2.8994,2.8988,2.8994,2.8988,2.8991,2.8974,2.8978,2.8974,2.8975,2.896,2.8961,2.8915,2.8909,2.8954,2.8954,2.8954,0,2.898,2.8972,2.8977,2.8974,2.8975,2.8969,2.8967,2.8977,2.8974,2.8974,2.8967,2.8961,2.8958,2.8946,2.895,2.8945,2.8949,2.8933,2.8948,2.8945,2.8947,2.8947,2.8946,2.8929,2.8929,2.8928,2.8928,0,2.8941,2.8946,2.8942,2.894,2.8937,2.8936,2.8935,2.8932,2.8942,2.8937,2.8932,2.8929,2.8923,2.8917,2.8913,2.8913,2.8922,2.8923,2.892,2.8916,2.8914,2.8914,2.8964,2.8924,2.8924,2.8925,2.8925,2.8925,2.8912,2.8905,2.8907,2.8903,2.8904,2.8903,2.8897,2.8901,2.8897,2.8893,2.8899,2.8891,2.8892,2.8888,2.8887,2.8881,2.8887,2.8882,2.8881,2.8879,2.8877,2.8916,2.888,2.888,2.888,2.8881,2.8881,0,2.8873,2.8875,2.8871,2.887,2.8867,2.8877,2.8876,2.8872,2.8866,2.8866,2.8862,2.8855,2.8849,2.8853,2.8848,2.8842,2.8846,2.884,2.884,2.884,2.8872,2.8875,2.8837,2.8837,2.8838,2.8838,2.8838,2.8838,2.8852,2.8841,2.8846,2.8835,2.8837,2.8831,2.883,2.8829,2.8829,2.8821,2.8817,2.8819,2.8821,2.8816,2.8811,2.8812,2.881,2.8803,2.8805,2.8834,2.8838,2.8842,2.8845,2.8802,2.8802,2.8774,2.8774,2.8774]}]]